{"data":{"norad_id":56784,"intl_designator":"2023-078T","name":"STARLINK-6354","alt_names":[],"object_type":"PAYLOAD","status":"ACTIVE","operator":null,"country":"US","launch_date":"2023-05-31","launch_site_code":"AFWTR","launch_vehicle":null,"mission":null,"orbit_class":"UNKNOWN","rcs_meters":null,"size_class":null,"mass_kg":null,"dimensions":null,"purposes":["comms"],"wikipedia_slug":null,"has_3d_model":false,"image_url":null,"decayed_at":null,"tle_current":{"epoch":"2026-05-25T05:09:34.214112Z","epoch_age_seconds":56761,"freshness":"FRESH","line1":"1 56784U 23078T   26145.21497933 -.00000198  00000+0 -88103-5 0  9990","line2":"2 56784  69.9986 131.6148 0003676 266.2686  93.8052 14.98330478164635","mean_motion":14.98330478,"eccentricity":0.0003676,"inclination_deg":69.9986,"raan_deg":131.6148,"arg_perigee_deg":266.2686,"mean_anomaly_deg":93.8052,"bstar":-8.8103e-6,"rev_number":16463,"period_min":96.106968465471,"perigee_km":569.4995224059,"apogee_km":574.60930313257,"semimajor_km":6950.1914127692,"source":"CELESTRAK","updated_at":"2026-05-25T13:38:18.154893Z"}}}